Weather History for KAPF - March, 2012

Change the Weather History Date:

Sunday, March 25, 2012

  Actual Average Record
Temperature  
Mean Temperature 76 °F 71 °F  
Max Temperature 79 °F 81 °F 88 °F (1974)
Min Temperature 72 °F 61 °F 43 °F (1968)
Degree Days  
Heating Degree Days 0 0  
Month to date heating degree days 2 19  
Since 1 July heating degree days 121 252  
Cooling Degree Days 11 6  
Month to date cooling degree days 219 135  
Year to date cooling degree days 493 326  
Growing Degree Days 25 (Base 50)    
Moisture  
Dew Point 66 °F    
Average Humidity 72    
Maximum Humidity 87    
Minimum Humidity 57    
Precipitation  
Precipitation 0.04 in 0.08 in 0.30 in (2014)
Month to date precipitation 1.00 1.82  
Year to date precipitation 4.38 5.77  
Snow  
Snow 0.00 in - - ()
Month to date snowfall 0.0  
Since 1 July snowfall 0.0  
Snow Depth 0.00 in    
Sea Level Pressure  
Sea Level Pressure 29.92 in    
Wind  
Wind Speed 11 mph (West)    
Max Wind Speed 18 mph    
Max Gust Speed 26 mph    
Visibility 10 miles    
Events Rain    
T = Trace of Precipitation, MM = Missing Value Source: NWS Daily Summary

Daily Weather History Graph

Daily Weather History Graph

Search for Another Location

Airport or City:

Trip Planner

Search our weather history database for the weather conditions in past years. The results will help you decide how hot, cold, wet, or windy it might be!

Date:

Astronomy

Mar. 25, 2012 Rise Set
Actual Time 7:25 AM EDT 7:40 PM EDT
Civil Twilight 7:02 AM EDT 8:04 PM EDT
Nautical Twilight 6:35 AM EDT 8:31 PM EDT
Astronomical Twilight 6:08 AM EDT 8:58 PM EDT
Moon 8:57 AM EDT (3/25) 10:31 PM EDT (3/25)
Length of Visible Light 13h 01m
Length of Day
12h 15m
Waxing Crescent, 8% of the Moon is Illuminated
Mar 25
Waxing Crescent
Mar 30
First Quarter
Apr 6
Full
Apr 13
Last Quarter
Apr 21
New

Hourly Weather History & Observations

Time (EDT) Temp. Dew Point Humidity Pressure Visibility Wind Dir Wind Speed Gust Speed Precip Events Conditions
12:53 AM 73.0 °F 68.0 °F 84% 29.97 in 10.0 mi SW 8.1 mph - N/A   Clear
1:53 AM 73.0 °F 68.0 °F 84% 29.96 in 10.0 mi SW 6.9 mph - N/A   Clear
2:53 AM 73.0 °F 66.9 °F 81% 29.96 in 10.0 mi SW 8.1 mph - N/A   Clear
3:45 AM 73.4 °F 68.0 °F 83% 29.95 in 10.0 mi SW 9.2 mph - N/A   Mostly Cloudy
3:53 AM 73.9 °F 68.0 °F 82% 29.94 in 10.0 mi SW 8.1 mph - N/A   Overcast
4:17 AM 73.4 °F 66.2 °F 78% 29.93 in 10.0 mi SW 10.4 mph - N/A   Scattered Clouds
4:53 AM 73.0 °F 66.9 °F 81% 29.93 in 10.0 mi SW 8.1 mph - N/A   Partly Cloudy
5:53 AM 73.0 °F 66.9 °F 81% 29.92 in 10.0 mi WSW 5.8 mph - N/A   Partly Cloudy
6:53 AM 73.9 °F 66.9 °F 79% 29.94 in 10.0 mi WSW 6.9 mph - N/A   Mostly Cloudy
7:53 AM 73.9 °F 66.9 °F 79% 29.96 in 10.0 mi WSW 8.1 mph - N/A   Overcast
8:53 AM 73.0 °F 68.0 °F 84% 29.97 in 3.0 mi WSW 9.2 mph 18.4 mph 0.02 in Rain Heavy Rain
9:53 AM 73.0 °F 69.1 °F 87% 29.92 in 9.0 mi SSW 10.4 mph - 0.02 in   Mostly Cloudy
10:53 AM 75.0 °F 66.0 °F 73% 29.93 in 10.0 mi WSW 10.4 mph 19.6 mph N/A   Mostly Cloudy
11:53 AM 75.9 °F 66.9 °F 74% 29.95 in 10.0 mi SW 13.8 mph - N/A   Overcast
12:53 PM 75.9 °F 68.0 °F 76% 29.94 in 9.0 mi WSW 16.1 mph 23.0 mph N/A   Overcast
1:53 PM 78.1 °F 66.9 °F 68% 29.91 in 10.0 mi WSW 17.3 mph 26.5 mph N/A   Partly Cloudy
2:53 PM 78.1 °F 64.9 °F 64% 29.89 in 10.0 mi West 11.5 mph 20.7 mph N/A   Partly Cloudy
3:53 PM 78.1 °F 66.0 °F 66% 29.88 in 10.0 mi West 12.7 mph - N/A   Clear
4:53 PM 78.1 °F 68.0 °F 71% 29.87 in 10.0 mi West 17.3 mph 21.9 mph N/A   Mostly Cloudy
5:00 PM 77.0 °F 68.0 °F 74% 29.87 in 10.0 mi West 15.0 mph - N/A   Partly Cloudy
5:19 PM 77.0 °F 68.0 °F 74% 29.87 in 10.0 mi WNW 17.3 mph 23.0 mph N/A   Mostly Cloudy
5:53 PM 75.9 °F 68.0 °F 76% 29.87 in 10.0 mi West 13.8 mph 20.7 mph N/A   Mostly Cloudy
6:19 PM 75.2 °F 66.2 °F 73% 29.87 in 10.0 mi WNW 12.7 mph - N/A   Scattered Clouds
6:53 PM 75.9 °F 66.0 °F 71% 29.87 in 10.0 mi WNW 15.0 mph 21.9 mph N/A   Partly Cloudy
7:53 PM 73.9 °F 63.0 °F 68% 29.88 in 10.0 mi WNW 9.2 mph - N/A   Clear
8:53 PM 73.0 °F 64.0 °F 73% 29.89 in 10.0 mi WNW 10.4 mph - N/A   Partly Cloudy
9:53 PM 72.0 °F 63.0 °F 73% 29.91 in 10.0 mi NW 9.2 mph - N/A   Clear
10:53 PM 73.0 °F 57.0 °F 57% 29.93 in 10.0 mi NW 9.2 mph 18.4 mph N/A   Clear
11:53 PM 73.0 °F 57.9 °F 59% 29.94 in 10.0 mi NNW 10.4 mph 18.4 mph N/A   Clear